Location: Espelette
(43.3402°N, 1.4474°W)
Time: 00:30:00
(UTC+00:00)

Helios 1B rocket - Pass Details

Date: 19 May 2025
Orbit: 497 x 502 km, 98.2° (Epoch: 18 June)

Event Time Altitude Azimuth Distance (km) Brightness Sun altitude
Exits shadow 20:49:53 - 191° (S) 2,038 4.9 -12.8°
Reaches altitude 10° 20:50:46 10° 196° (SSW) 1,693 4.5 -12.9°
Maximum altitude 20:54:06 33° 262° (W) 850 3.6 -13.4°
Drops below altitude 10° 20:57:28 10° 328° (NNW) 1,709 6.2 -13.8°
Sets 20:59:42 0° 338° (NNW) 2,599 7.1 -14.1°
